Weather History for San Diego, CA

Change the Weather History Date:

Tuesday, February 4, 2014

  Actual Average Record
Temperature  
Mean Temperature 57 °F 58 °F  
Max Temperature 62 °F 65 °F 82 °F (1947)
Min Temperature 52 °F 50 °F 37 °F (1922)
Degree Days  
Heating Degree Days 8 8  
Month to date heating degree days 32 32  
Since 1 July heating degree days 387 687  
Cooling Degree Days 0 0  
Month to date cooling degree days 0 0  
Year to date cooling degree days 7 2  
Growing Degree Days 7 (Base 50)    
Moisture  
Dew Point 44 °F    
Average Humidity 61    
Maximum Humidity 71    
Minimum Humidity 51    
Precipitation  
Precipitation T in 0.07 in 1.40 in (1856)
Month to date precipitation 0.09 0.28  
Year to date precipitation 0.10 2.26  
Since 1 July precipitation 2.34 5.57  
Snow  
Snow 0.00 in - - ()
Month to date snowfall 0.0  
Year to date snowfall 0.0  
Since 1 July snowfall 0.0  
Snow Depth 0.00 in    
Sea Level Pressure  
Sea Level Pressure 30.07 in    
Wind  
Wind Speed 6 mph (South)    
Max Wind Speed 13 mph    
Max Gust Speed 17 mph    
Visibility 10 miles    
Events      
T = Trace of Precipitation, MM = Missing Value Source: NWS Daily Summary

Daily Weather History Graph

Daily Weather History Graph

Search for Another Location

Airport:

Trip Planner

Search our weather history database for the weather conditions in past years. The results will help you decide how hot, cold, wet, or windy it might be!

Date:

Astronomy

Feb. 04, 2014 Rise Set
Actual Time 6:41 AM PST 5:24 PM PST
Civil Twilight 6:15 AM PST 5:50 PM PST
Nautical Twilight 5:46 AM PST 6:19 PM PST
Astronomical Twilight 5:17 AM PST 6:48 PM PST
Moon 9:42 AM PST (2/4) 11:01 PM PST (2/4)
Length of Visible Light 11h 34m
Length of Day
10h 43m
Waxing Crescent, 30% of the Moon is Illuminated
Feb 4
Waxing Crescent
Feb 6
First Quarter
Feb 14
Full
Feb 22
Last Quarter
Mar 1
New

Hourly Weather History & Observations

Time (PST) Temp. Dew Point Humidity Pressure Visibility Wind Dir Wind Speed Gust Speed Precip Events Conditions
12:12 AM 53.6 °F 44.6 °F 72% 30.03 in 10.0 mi Calm Calm - N/A   Mostly Cloudy
12:51 AM 55.0 °F 45.0 °F 69% 30.03 in 10.0 mi ESE 5.8 mph - N/A   Mostly Cloudy
1:08 AM 53.6 °F 44.6 °F 72% 30.03 in 10.0 mi ESE 6.9 mph - N/A   Mostly Cloudy
1:40 AM 53.6 °F 44.6 °F 72% 30.03 in 10.0 mi ESE 5.8 mph - N/A   Scattered Clouds
1:51 AM 54.0 °F 45.0 °F 72% 30.03 in 10.0 mi ESE 4.6 mph - N/A   Scattered Clouds
2:51 AM 53.1 °F 45.0 °F 74% 30.04 in 10.0 mi ESE 3.5 mph - N/A   Mostly Cloudy
3:51 AM 53.1 °F 45.0 °F 74% 30.04 in 10.0 mi Calm Calm - N/A   Partly Cloudy
4:51 AM 53.1 °F 44.1 °F 71% 30.04 in 10.0 mi ESE 6.9 mph - N/A   Scattered Clouds
5:51 AM 54.0 °F 44.1 °F 69% 30.05 in 10.0 mi ESE 8.1 mph - N/A   Mostly Cloudy
6:51 AM 54.0 °F 45.0 °F 72% 30.06 in 10.0 mi ESE 9.2 mph - N/A   Mostly Cloudy
7:31 AM 55.4 °F 44.6 °F 67% 30.07 in 10.0 mi SE 5.8 mph - 0.00 in   Mostly Cloudy
7:51 AM 55.0 °F 45.0 °F 69% 30.08 in 10.0 mi SE 6.9 mph - 0.00 in   Mostly Cloudy
8:09 AM 55.4 °F 44.6 °F 67% 30.09 in 10.0 mi SE 5.8 mph - N/A   Mostly Cloudy
8:51 AM 57.9 °F 46.0 °F 65% 30.09 in 10.0 mi SE 4.6 mph - N/A   Mostly Cloudy
9:51 AM 59.0 °F 46.0 °F 62% 30.11 in 10.0 mi SSE 3.5 mph - N/A   Mostly Cloudy
10:51 AM 60.1 °F 43.0 °F 53% 30.12 in 10.0 mi WSW 9.2 mph - N/A   Mostly Cloudy
11:51 AM 61.0 °F 42.1 °F 50% 30.09 in 10.0 mi WSW 11.5 mph - N/A   Mostly Cloudy
12:51 PM 61.0 °F 42.1 °F 50% 30.07 in 10.0 mi SW 10.4 mph - N/A   Mostly Cloudy
1:51 PM 61.0 °F 42.1 °F 50% 30.06 in 10.0 mi SSW 9.2 mph - N/A   Mostly Cloudy
2:51 PM 60.1 °F 43.0 °F 53% 30.05 in 10.0 mi SW 9.2 mph - N/A   Mostly Cloudy
3:51 PM 60.1 °F 43.0 °F 53% 30.04 in 10.0 mi SW 8.1 mph - N/A   Mostly Cloudy
4:51 PM 59.0 °F 43.0 °F 55% 30.04 in 10.0 mi WSW 6.9 mph - N/A   Mostly Cloudy
5:51 PM 57.9 °F 44.1 °F 60% 30.06 in 10.0 mi West 6.9 mph - N/A   Mostly Cloudy
6:51 PM 57.9 °F 44.1 °F 60% 30.07 in 10.0 mi WSW 4.6 mph - N/A   Mostly Cloudy
7:51 PM 57.9 °F 44.1 °F 60% 30.09 in 10.0 mi West 5.8 mph - N/A   Mostly Cloudy
8:23 PM 57.2 °F 44.6 °F 63% 30.10 in 10.0 mi Calm Calm - N/A   Overcast
8:46 PM 57.2 °F 42.8 °F 59% 30.10 in 10.0 mi SSW 4.6 mph - N/A   Overcast
8:51 PM 57.9 °F 44.1 °F 60% 30.09 in 10.0 mi WSW 4.6 mph - N/A   Overcast
9:51 PM 57.9 °F 43.0 °F 58% 30.11 in 10.0 mi SW 5.8 mph - N/A   Overcast
10:51 PM 57.9 °F 42.1 °F 56% 30.12 in 10.0 mi South 3.5 mph - N/A   Overcast
11:51 PM 57.9 °F 43.0 °F 58% 30.11 in 10.0 mi SW 4.6 mph - N/A   Overcast